Location: Boiro
(42.6475°N, 8.8834°W)
Time: 19:00:18
(UTC+01:00)

Transit 2A Rocket - Pass Details

Date: 03 December 2021
Orbit: 585 x 917 km, 66.7° (Epoch: 26 January)

Event Time Altitude Azimuth Distance (km) Brightness Sun altitude
Rises 16:43:22 0° 335° (NNW) 3,564 8.3 10.8°
Reaches altitude 10° 16:46:24 10° 347° (NNW) 2,612 7.5 10.4°
Maximum altitude 16:51:26 26° 43° (NE) 1,692 6.3 9.7°
Drops below altitude 10° 16:56:16 10° 99° (E) 2,505 7.3 9.0°
Sets 16:59:05 0° 112° (ESE) 3,391 8.1 8.6°
